STARLINK-1333, 45580

Orbit data source: Space-Track

STARLINK-1333, 45580 is a payload satellite owned by SpaceX/Seattle (US) in LEO that was launched on Wed, 22 Apr 2020 UTC via an FALCON 9 launch vehicle from the Air Force Eastern Test Range (AFETR). Payload-class satellites include a variety of spacecraft equipped with specific instruments for various scientific and technological missions. These include communications satellites like Starlink; space stations such as the ISS; scientific satellites like the Hubble; Earth observation satellites from companies like Planet Labs, Umbra, and HawkEye 360; GPS; miniature CubeSats for education and research; and military/defense satellites.

Loading next visibility...
Identifier
45580, 2020-025BB
Orbit
LEO
Country
Flag of USUS
Related business
Manufacturer
SpaceX/Seattle
Mission
Operational Commercial Communications
Bus & Motor
STARLINK, Unknown motor
Mass
260 kg wet, ~248 kg dry
Launch date (UTC)
2020-04-22 (5 years ago)
Launch vehicle
FALCON 9
Launch site
Air Force Eastern Test Range (AFETR)
Object type
Payload
Rocket body
Debris
Shape & HBR
Box + 1 Pan, 10.1 m
Radar Cross Section
13.562 m², Large (>1 m²)

Expand to show TLE details & history
Last TLE update: 1 day ago

TLE from 1 day ago
0 STARLINK-1333
1 45580U 20025BB  25287.56301023  .00002693  00000-0  19970-3 0  9994
2 45580  53.0549  22.6046 0001235  98.3083 261.8046 15.06381155303347
Epoch: 2025-10-14T13:30Z
TLE epoch observation values (Epoch: 2025-10-14T13:30:44.083Z)
Latitude
-0.00005°
Longitude
156.57124°
Altitude
548.271 km
Speed
7.589 km/s
True Right ascension
01h 30m 25s
True Declination
0° 00' 00"
Sunlit
Object was in full shadow at epoch
Visualization orbit readout
Latitude
Unknown
Longitude
Unknown
Altitude
Unknown
Speed
Unknown
Apparent Right ascension
Unknown
Apparent Declination
Unknown
Sunlit
N/A
Visualization observer readout
Local Sidereal Time
09:02:42
Azimuth
Unknown
Elevation
Unknown
Doppler factor
Unknown
Orbital elements
Apogee altitude
548.395 km
Perigee altitude
546.685 km
Semi-major axis
6,925.677 km
Eccentricity
0.00012
Inclination
53.0549°
RAAN
22.6046°
Arg. of periapsis
98.3083°
True anomaly
261.79059°
Mean anomaly
261.8046°
Eccentric anomaly
261.7976°
Mean motion
3.76574 °/min
Orbital period
95.6 mins
BSTAR
0.0001997
Loading maneuver chart data...
Computing Atmospheric mass density...

Documentation

Showing up to 5 results
|